Weather in Saratovskiy

Russia / The Kabardino-Balkar Republic     43°43′42″N   43°46′47″E
temp.,
°C
wind,
m/s
gust,
m/s
humid.,
%
clouds,
%
prec.,
mm/h
press.,
hPa
HPBL,
m
26 may, thu
thu2600:00+9w22735 0.0 102114
03:00+9w22725 0.0 102217
06:00+11wsw23686 0.0 102287
09:00+17ne11535 0.0 1021745
12:00+20e214687 0.0 10212075
15:00+20e224483 0.0 10192044
18:00+19e346262 0.0 1019138
21:00+13sse117512 0.0 102010
27 may, fri
fri2700:00+11ssw118420 0.0 101910
03:00+11wsw118474 0.0 101910
06:00+13wsw11715 0.0 101952
09:00+19n22563 0.0 1019677
12:00+22ne21491 0.0 10181494
15:00+24ne224762 0.0 10171968
18:00+20nne2263100 0.0 101824
21:00+17nnw246188 0.0 101984
28 may, sat
sat2800:00+16nw116490 0.0 101911
03:00+14sse11748 0.0 101811
06:00+15sse12750 0.0 101877
09:00+20ese35590 0.0 1017824
12:00+23e45535 0.0 10151490
15:00+24e44499 0.0 10141708
18:00+23e23600 0.0 1014142
21:00+17ene22762 0.0 101526
29 may, sun
sun2900:00+14nne01790 0.0 101411
03:00+13n11824 0.0 101410
06:00+15ene11765 0.0 101463
09:00+21ne116299 0.0 1014441
12:00+26nne22532 0.0 10141001
15:00+27ne22490 0.0 10141461
18:00+26ne226245 0.0 101466
21:00+20s0175100 0.0 101611
30 may, mon
mon3000:00+18w228419 0.0 101618
03:00+16sw22781 0.0 101611
06:00+19wsw11675 0.0 101647
09:00+24ese22580 0.0 1016492
12:00+28e34530 0.0 10141282
15:00+28e55500 0.0 10131668
18:00+27e35609 0.0 1012192
21:00+21ssw127021 0.0 101211